Wind_Speed
12 12 12 13 13 13 14 14 14 15 16 17 18 18 18 19 19 19 19 20 20 20 21 21 22 22 22 23 23 23 24 25 26 27 28 29 29 29
12 13 13 14 14 14 15 15 15 16 16 18 18 19 20 20 19 20 20 21 21 21 22 22 22 23 23 24 24 25 26 26 27 28 28 28 28 29
13 14 14 14 15 15 16 17 17 17 18 18 19 19 20 20 20 21 21 21 22 22 23 22 22 23 24 25 26 26 27 27 27 27 28 27 28 28
15 15 15 15 15 16 17 18 18 18 19 19 19 20 20 21 21 21 22 22 23 24 24 24 24 24 25 26 26 27 27 28 28 28 29 29 29 30
15 15 16 16 16 17 17 18 18 18 19 19 20 21 21 22 22 22 23 24 24 25 25 25 26 26 27 27 27 28 28 29 30 31 31 31 31 32
16 16 16 17 17 18 18 18 18 19 20 20 21 22 22 23 23 24 25 25 26 26 26 26 27 27 28 28 29 30 30 30 31 31 32 32 33 33
16 17 17 17 18 18 19 19 20 20 21 22 23 23 24 24 25 25 26 26 27 27 27 27 28 28 29 29 30 31 31 31 31 31 32 32 33 33
17 17 17 17 18 20 20 21 21 22 22 23 24 24 24 25 26 26 26 26 27 27 28 28 28 28 29 29 30 31 31 32 32 32 32 32 33 33
18 19 19 19 20 21 21 22 22 23 23 24 24 24 25 26 26 27 27 27 27 28 28 29 29 29 30 30 31 31 31 31 32 32 32 32 32 32
20 21 21 21 22 22 23 23 24 24 24 25 25 25 26 26 26 27 27 28 28 28 29 29 30 31 31 31 31 31 31 32 32 32 32 32 32 32
22 22 22 22 23 23 24 24 25 25 26 26 26 26 26 27 27 28 28 28 29 29 30 31 31 31 31 31 31 31 31 31 31 31 31 32 32 32
23 22 23 23 24 24 24 25 25 25 26 26 27 27 27 28 28 28 29 29 29 29 30 31 31 31 31 31 30 31 31 31 31 31 31 31 31 31
24 23 23 24 24 24 25 25 25 26 26 27 27 28 28 28 29 29 29 29 30 30 30 30 30 30 30 29 29 30 30 30 30 30 30 31 31 30
24 24 24 24 24 25 26 26 26 26 26 26 27 28 28 28 28 28 29 30 30 30 30 30 30 29 29 29 29 30 30 30 30 30 30 30 30 30
26 26 26 27 27 27 27 27 28 28 28 28 28 28 28 28 29 29 30 30 30 30 30 30 29 29 29 29 29 30 30 30 30 30 30 29 29 29
28 28 28 29 29 28 28 28 28 28 28 28 28 29 29 30 30 30 30 30 30 30 29 29 29 29 29 29 30 30 30 30 30 29 29 29 28 28
29 29 29 29 29 29 29 29 29 29 29 29 29 30 30 31 31 31 30 29 29 30 29 29 29 29 29 30 30 30 30 30 29 29 28 28 28 28
30 29 30 31 31 31 30 30 29 29 30 30 31 31 31 31 31 31 31 30 30 30 30 30 30 30 30 30 30 30 30 29 28 28 28 28 28 29
30 30 31 31 32 31 31 31 31 31 31 31 31 31 30 31 32 31 31 30 30 30 30 30 30 30 30 30 30 30 29 29 29 29 29 29 29 28
31 31 31 31 31 32 32 32 32 32 32 31 31 30 31 31 31 31 31 30 30 30 30 30 30 30 30 30 30 29 29 29 29 29 29 29 29 29
32 32 32 32 32 32 32 32 32 32 32 32 31 31 32 32 31 31 31 30 30 30 31 31 31 30 30 30 29 29 29 29 29 29 29 29 28 28
32 32 32 32 33 33 33 32 32 33 33 32 32 31 32 31 31 31 31 31 31 30 31 31 31 31 30 30 30 30 30 29 29 29 29 29 29 28
33 34 34 34 34 33 33 33 33 32 32 32 32 32 32 31 32 32 32 31 31 31 31 31 31 31 31 30 30 30 30 30 30 29 29 29 29 28
Wind_Direction
288 286 288 289 289 286 286 288 290 290 292 292 292 294 294 296 296 295 295 295 295 294 292 289 288 288 288 288 286 283 283 283 282 280 279 279 279 277
291 290 289 286 286 286 288 289 291 291 291 291 292 293 293 294 295 296 298 297 297 296 294 292 290 289 289 288 286 285 284 283 283 283 283 279 279 279
295 294 294 290 287 287 288 290 290 290 291 292 293 293 294 294 294 294 294 296 297 297 297 296 293 292 292 289 287 287 287 286 284 283 283 283 281 278
300 296 295 295 291 291 292 292 292 291 291 292 293 295 295 295 294 293 294 294 294 295 296 295 293 293 293 291 289 289 288 286 285 284 284 283 281 279
301 299 297 296 295 294 294 293 293 293 293 293 294 295 296 295 295 294 294 294 294 293 294 294 293 293 293 292 292 290 289 287 286 285 285 284 283 281
302 300 298 296 295 295 294 293 293 293 293 294 294 295 296 296 296 295 296 296 296 296 295 294 294 295 294 293 293 292 291 290 289 288 287 286 285 284
303 302 300 297 296 295 294 293 292 292 293 293 294 294 294 295 295 295 295 296 297 297 296 295 295 296 295 294 293 292 292 291 290 289 288 286 285 285
304 302 300 298 297 296 295 294 293 294 293 294 295 295 294 294 295 295 295 295 296 296 296 296 296 296 295 295 294 293 292 292 292 291 289 288 287 286
304 301 299 298 297 297 296 296 296 295 295 295 296 294 295 295 294 295 294 294 294 295 295 295 295 295 295 294 295 295 294 293 293 292 291 289 288 287
305 301 298 297 297 296 296 296 296 297 296 296 295 294 294 295 294 294 294 294 294 294 294 295 296 296 296 295 294 294 294 294 294 293 292 290 290 290
305 303 300 298 298 298 297 296 295 296 296 296 296 295 294 295 295 295 295 295 295 295 296 296 296 296 296 295 295 294 294 294 293 292 292 292 292 291
304 303 302 299 299 298 297 298 297 297 297 296 295 295 295 296 297 296 296 296 296 296 297 297 297 297 297 296 296 296 295 295 294 293 292 292 291 291
303 301 300 299 298 298 298 298 299 299 298 297 296 296 296 297 297 297 296 296 296 297 298 298 298 298 298 297 296 297 296 296 296 294 293 293 293 293
303 301 301 300 298 299 300 299 298 298 298 297 297 297 297 297 297 297 297 297 297 297 298 298 298 298 298 297 298 297 298 299 297 296 295 295 295 294
302 301 301 300 300 298 298 298 298 298 297 297 298 298 298 297 296 297 297 298 297 297 298 298 297 297 298 298 299 300 300 300 299 298 297 296 296 296
304 303 302 301 300 299 299 299 298 298 297 297 298 298 298 297 297 297 298 299 299 298 299 299 298 299 299 298 299 300 301 301 300 299 298 298 298 297
303 302 300 300 299 299 298 297 297 297 297 297 298 298 298 297 297 297 297 297 297 298 298 298 298 298 299 300 301 301 301 301 300 299 299 298 298 296
301 300 299 299 298 298 298 297 297 296 297 297 297 297 297 298 298 298 297 297 297 298 298 297 298 299 299 300 301 301 300 300 299 299 299 299 299 298
299 299 299 299 297 297 297 296 296 296 297 297 297 296 296 297 298 298 298 297 297 296 296 297 297 298 299 301 301 301 301 300 298 299 300 300 299 298
300 299 299 298 298 298 297 296 296 297 297 297 296 296 296 297 298 298 298 297 297 296 297 298 298 299 300 300 301 301 301 300 299 299 299 300 299 298
298 298 298 298 298 299 298 297 297 297 296 295 295 295 296 297 296 297 297 296 296 296 296 297 298 298 299 299 300 301 300 300 299 299 299 299 298 298
297 297 298 298 298 298 297 297 296 296 295 295 295 295 295 296 296 296 297 296 296 296 297 298 298 298 298 298 299 300 299 300 300 301 299 299 299 297
296 296 296 297 297 297 297 296 296 296 296 296 296 296 296 296 296 296 296 295 295 296 297 298 299 299 298 298 299 299 298 298 299 299 299 299 298 297
Height
5876 5875 5873 5872 5871 5870 5869 5868 5867 5866 5865 5863 5861 5860 5858 5856 5855 5853 5851 5850 5848 5847 5845 5843 5842 5840 5838 5836 5835 5833 5832 5830 5828 5827 5825 5824 5823 5822
5872 5871 5870 5869 5868 5867 5866 5864 5863 5862 5861 5859 5857 5856 5854 5852 5850 5848 5847 5845 5843 5841 5839 5837 5836 5834 5832 5830 5828 5827 5825 5823 5822 5820 5818 5817 5815 5814
5869 5868 5866 5865 5864 5863 5861 5860 5859 5858 5856 5855 5853 5851 5849 5847 5845 5844 5842 5840 5838 5836 5834 5832 5830 5828 5826 5824 5822 5820 5818 5816 5814 5813 5811 5809 5808 5806
5865 5864 5863 5861 5860 5859 5857 5856 5854 5853 5851 5850 5848 5846 5844 5842 5840 5839 5837 5835 5833 5830 5828 5826 5824 5822 5819 5817 5815 5813 5811 5809 5807 5805 5803 5802 5800 5798
5862 5860 5859 5858 5856 5855 5853 5851 5850 5848 5847 5845 5843 5841 5839 5837 5835 5833 5831 5829 5827 5824 5822 5819 5817 5815 5812 5810 5808 5806 5803 5801 5799 5797 5795 5793 5792 5790
5858 5856 5855 5853 5852 5850 5848 5847 5845 5843 5842 5840 5838 5836 5834 5832 5830 5828 5825 5823 5820 5817 5815 5812 5810 5807 5805 5803 5800 5798 5795 5793 5791 5789 5787 5785 5783 5781
5855 5853 5851 5849 5847 5845 5844 5842 5840 5838 5836 5834 5832 5830 5828 5826 5824 5821 5819 5816 5813 5811 5808 5805 5803 5800 5798 5795 5792 5790 5787 5785 5782 5780 5777 5775 5773 5771
5850 5848 5846 5844 5843 5841 5839 5837 5835 5833 5831 5829 5826 5824 5822 5819 5817 5814 5812 5809 5807 5804 5801 5798 5795 5793 5790 5787 5784 5782 5779 5776 5773 5771 5768 5766 5763 5761
5846 5844 5842 5840 5838 5836 5833 5831 5829 5827 5825 5822 5820 5817 5815 5813 5810 5807 5805 5802 5799 5797 5794 5791 5788 5785 5782 5779 5776 5773 5770 5767 5764 5762 5759 5757 5754 5752
5841 5838 5836 5834 5832 5829 5827 5825 5823 5820 5818 5815 5813 5811 5808 5806 5803 5800 5797 5795 5792 5789 5786 5783 5780 5777 5773 5770 5768 5765 5762 5759 5756 5753 5750 5748 5745 5743
5835 5832 5830 5828 5825 5823 5821 5818 5816 5814 5811 5809 5806 5804 5801 5798 5796 5793 5790 5787 5784 5781 5778 5775 5772 5768 5765 5762 5759 5756 5753 5750 5747 5744 5742 5739 5736 5734
5829 5826 5824 5821 5819 5816 5814 5812 5809 5806 5804 5802 5799 5797 5794 5791 5788 5785 5782 5779 5776 5773 5770 5767 5763 5760 5757 5753 5750 5747 5744 5741 5738 5736 5733 5730 5727 5725
5822 5819 5817 5815 5812 5810 5807 5805 5802 5799 5797 5794 5791 5789 5786 5783 5780 5777 5774 5771 5768 5765 5762 5758 5755 5751 5748 5745 5742 5739 5736 5733 5730 5727 5724 5721 5718 5716
5816 5813 5810 5808 5805 5803 5800 5797 5795 5792 5789 5786 5784 5781 5778 5775 5772 5770 5766 5763 5760 5757 5753 5750 5747 5743 5740 5737 5734 5731 5728 5724 5721 5718 5715 5713 5710 5707
5810 5807 5804 5801 5799 5796 5793 5790 5787 5784 5781 5779 5776 5773 5770 5767 5764 5761 5758 5755 5752 5748 5745 5742 5739 5735 5732 5729 5726 5723 5720 5716 5713 5710 5707 5704 5701 5698
5803 5800 5797 5794 5791 5788 5785 5782 5779 5776 5773 5771 5768 5765 5762 5759 5756 5753 5750 5747 5743 5740 5737 5734 5731 5728 5725 5721 5718 5715 5711 5708 5705 5702 5699 5696 5693 5690
5795 5792 5789 5786 5783 5780 5777 5774 5771 5768 5765 5762 5759 5757 5753 5750 5747 5744 5741 5738 5735 5732 5729 5726 5723 5720 5716 5713 5710 5707 5703 5700 5697 5694 5691 5687 5684 5682
5787 5784 5781 5778 5775 5772 5769 5766 5763 5760 5757 5754 5751 5748 5745 5742 5739 5736 5732 5729 5727 5724 5721 5718 5715 5712 5709 5706 5703 5699 5696 5692 5689 5686 5683 5679 5676 5674
5779 5776 5773 5770 5767 5764 5760 5757 5754 5751 5748 5745 5742 5739 5736 5733 5730 5727 5724 5721 5718 5715 5712 5709 5706 5703 5700 5697 5694 5691 5687 5684 5681 5678 5675 5672 5669 5666
5771 5768 5764 5761 5758 5755 5751 5748 5746 5742 5739 5736 5733 5730 5727 5724 5721 5718 5715 5712 5709 5706 5703 5701 5698 5695 5692 5689 5685 5682 5679 5676 5673 5670 5667 5663 5660 5657
5762 5759 5755 5752 5749 5746 5743 5739 5736 5733 5730 5727 5724 5721 5718 5715 5712 5709 5706 5703 5700 5698 5695 5692 5689 5686 5683 5680 5677 5674 5671 5668 5664 5661 5658 5655 5652 5649
5753 5750 5746 5743 5740 5737 5733 5730 5727 5724 5721 5718 5715 5712 5709 5706 5703 5700 5697 5694 5691 5689 5686 5683 5680 5677 5674 5671 5668 5665 5662 5659 5656 5653 5650 5647 5644 5641
5743 5740 5737 5733 5730 5727 5724 5721 5718 5714 5711 5708 5706 5703 5700 5697 5694 5691 5688 5685 5682 5680 5677 5674 5671 5668 5665 5662 5659 5656 5653 5650 5647 5644 5642 5639 5636 5633